When you browse on this site, cookies collect data to enhance your experience and personalize the content and advertising you see.
Visit our Privacy Policy to learn more. By continuing to use the site, you agree to this use of cookies and data.
  • In Lithuania
  • List of Countries
  • For 7 days
  • Water Temperature
  • Satellite Maps
  • Weather Map
  • Weather Widgets
  • user-avatar
    Login

    Hourly Weather Szeged

    Today, 25 April, Thursday

    Time Temperature Precipitation Wind Pressure Humidity
    00:00 +14°C° 0.5 mm 6 mps 756 mmHg 76%
    01:00 +13°C° 0 mm 4 mps 756 mmHg 81%
    02:00 +13°C° 0.1 mm 4 mps 756 mmHg 82%
    03:00 +12°C° 0.1 mm 4 mps 757 mmHg 84%
    04:00 +12°C° 0.1 mm 4 mps 757 mmHg 85%
    05:00 +13°C° 0 mm 4 mps 757 mmHg 82%
    06:00 +14°C° 0 mm 4 mps 757 mmHg 79%
    07:00 +17°C° 0 mm 4 mps 757 mmHg 75%
    08:00 +19°C° 0 mm 4 mps 757 mmHg 68%
    09:00 +21°C° 0 mm 4 mps 757 mmHg 62%
    10:00 +23°C° 0 mm 4 mps 757 mmHg 55%
    11:00 +25°C° 0 mm 4 mps 757 mmHg 51%
    12:00 +26°C° 0 mm 4 mps 757 mmHg 46%
    13:00 +27°C° 0 mm 4 mps 757 mmHg 42%
    14:00 +27°C° 0 mm 4 mps 757 mmHg 43%
    15:00 +27°C° 0 mm 4 mps 756 mmHg 43%
    16:00 +27°C° 0 mm 4 mps 756 mmHg 44%
    17:00 +25°C° 0 mm 4 mps 756 mmHg 50%
    18:00 +22°C° 0 mm 3 mps 755 mmHg 55%
    19:00 +20°C° 0 mm 3 mps 755 mmHg 61%
    20:00 +20°C° 0 mm 3 mps 755 mmHg 65%
    21:00 +19°C° 0 mm 4 mps 756 mmHg 69%
    22:00 +18°C° 0 mm 4 mps 756 mmHg 73%
    23:00 +18°C° 0 mm 4 mps 756 mmHg 75%

    Tomorrow, 26 April, Friday

    Time Temperature Precipitation Wind Pressure Humidity
    00:00 +17°C° 0 mm 4 mps 756 mmHg 76%
    01:00 +15°C° 0 mm 4 mps 756 mmHg 77%
    02:00 +15°C° 0 mm 4 mps 755 mmHg 79%
    03:00 +15°C° 0 mm 4 mps 755 mmHg 81%
    04:00 +14°C° 0 mm 4 mps 755 mmHg 84%
    05:00 +15°C° 0 mm 4 mps 755 mmHg 81%
    06:00 +17°C° 0 mm 4 mps 755 mmHg 78%
    07:00 +19°C° 0 mm 5 mps 755 mmHg 75%
    08:00 +21°C° 0 mm 5 mps 755 mmHg 68%
    09:00 +23°C° 0 mm 5 mps 755 mmHg 61%
    10:00 +26°C° 0 mm 4 mps 754 mmHg 54%
    11:00 +27°C° 0 mm 5 mps 754 mmHg 49%
    12:00 +28°C° 0 mm 5 mps 754 mmHg 44%
    13:00 +30°C° 0 mm 5 mps 753 mmHg 38%
    14:00 +29°C° 0 mm 5 mps 753 mmHg 39%
    15:00 +29°C° 0 mm 5 mps 752 mmHg 40%
    16:00 +29°C° 0 mm 4 mps 752 mmHg 42%
    17:00 +27°C° 0 mm 4 mps 752 mmHg 48%
    18:00 +25°C° 0 mm 4 mps 752 mmHg 54%
    19:00 +22°C° 0 mm 4 mps 751 mmHg 61%
    20:00 +21°C° 0.1 mm 3 mps 752 mmHg 65%
    21:00 +21°C° 0.1 mm 3 mps 752 mmHg 68%
    22:00 +20°C° 0.1 mm 3 mps 752 mmHg 72%
    23:00 +19°C° 1.8 mm 3 mps 752 mmHg 78%

    Day after tomorrow, 27 April, Saturday

    Time Temperature Precipitation Wind Pressure Humidity
    00:00 +18°C° 1.8 mm 3 mps 752 mmHg 84%
    01:00 +17°C° 1.8 mm 3 mps 752 mmHg 90%
    02:00 +16°C° 0.1 mm 3 mps 752 mmHg 89%
    03:00 +14°C° 0.1 mm 3 mps 752 mmHg 88%
    04:00 +14°C° 0.1 mm 3 mps 752 mmHg 88%
    05:00 +13°C° 0.3 mm 3 mps 752 mmHg 87%
    06:00 +13°C° 0.3 mm 3 mps 753 mmHg 86%
    07:00 +12°C° 0.3 mm 4 mps 753 mmHg 85%
    08:00 +12°C° 0.2 mm 4 mps 753 mmHg 84%
    09:00 +12°C° 0.2 mm 4 mps 753 mmHg 83%
    10:00 +12°C° 0.2 mm 4 mps 754 mmHg 83%
    11:00 +12°C° 0.3 mm 4 mps 754 mmHg 83%
    12:00 +12°C° 0.3 mm 4 mps 754 mmHg 84%
    13:00 +12°C° 0.3 mm 4 mps 754 mmHg 85%
    14:00 +13°C° 0 mm 4 mps 753 mmHg 81%
    15:00 +14°C° 0 mm 3 mps 753 mmHg 78%
    16:00 +16°C° 0 mm 3 mps 753 mmHg 74%
    17:00 +14°C° 0 mm 3 mps 753 mmHg 76%
    18:00 +13°C° 0 mm 3 mps 753 mmHg 79%
    19:00 +13°C° 0 mm 3 mps 753 mmHg 81%
    20:00 +12°C° 0 mm 3 mps 753 mmHg 82%
    21:00 +11°C° 0 mm 3 mps 753 mmHg 83%
    22:00 +11°C° 0 mm 3 mps 753 mmHg 84%
    23:00 +11°C° 0 mm 3 mps 753 mmHg 84%

    28 April, Sunday

    Time Temperature Precipitation Wind Pressure Humidity
    00:00 +10°C° 0 mm 3 mps 753 mmHg 84%
    01:00 +10°C° 0 mm 4 mps 753 mmHg 83%
    02:00 +10°C° 0 mm 4 mps 753 mmHg 82%
    03:00 +10°C° 0 mm 4 mps 753 mmHg 80%
    04:00 +9°C° 0 mm 5 mps 753 mmHg 78%
    05:00 +9°C° 0 mm 5 mps 753 mmHg 77%
    06:00 +10°C° 0 mm 5 mps 753 mmHg 75%
    07:00 +11°C° 0 mm 6 mps 753 mmHg 74%
    08:00 +13°C° 0 mm 5 mps 753 mmHg 70%
    09:00 +15°C° 0 mm 5 mps 753 mmHg 67%
    10:00 +16°C° 0 mm 5 mps 753 mmHg 63%
    11:00 +18°C° 0.3 mm 4 mps 753 mmHg 61%
    12:00 +18°C° 0.3 mm 4 mps 753 mmHg 59%
    13:00 +19°C° 0.3 mm 4 mps 753 mmHg 57%
    14:00 +19°C° 0.5 mm 3 mps 752 mmHg 58%
    15:00 +19°C° 0.5 mm 3 mps 752 mmHg 58%
    16:00 +19°C° 0.5 mm 2 mps 752 mmHg 58%
    17:00 +17°C° 0.1 mm 2 mps 752 mmHg 65%
    18:00 +15°C° 0.1 mm 2 mps 752 mmHg 73%
    19:00 +14°C° 0.1 mm 2 mps 752 mmHg 80%
    20:00 +13°C° 0 mm 2 mps 752 mmHg 83%
    21:00 +12°C° 0 mm 2 mps 752 mmHg 87%
    22:00 +12°C° 0 mm 2 mps 752 mmHg 90%
    23:00 +10°C° 0 mm 2 mps 752 mmHg 90%

    29 April, Monday

    Time Temperature Precipitation Wind Pressure Humidity
    00:00 +10°C° 0 mm 2 mps 752 mmHg 90%
    01:00 +11°C° 0 mm 1 mps 752 mmHg 90%
    02:00 +10°C° 0 mm 1 mps 752 mmHg 89%
    03:00 +10°C° 0 mm 1 mps 752 mmHg 89%
    04:00 +10°C° 0 mm 1 mps 752 mmHg 89%
    05:00 +11°C° 0 mm 1 mps 752 mmHg 83%
    06:00 +12°C° 0 mm 1 mps 752 mmHg 77%
    07:00 +13°C° 0 mm 0 mps 752 mmHg 71%
    08:00 +15°C° 0 mm 1 mps 752 mmHg 65%
    09:00 +18°C° 0 mm 1 mps 751 mmHg 58%
    10:00 +19°C° 0 mm 1 mps 751 mmHg 51%
    11:00 +19°C° 0 mm 2 mps 751 mmHg 49%
    12:00 +20°C° 0 mm 2 mps 750 mmHg 47%
    13:00 +20°C° 0 mm 2 mps 750 mmHg 45%
    14:00 +20°C° 0.1 mm 2 mps 749 mmHg 47%
    15:00 +20°C° 0.1 mm 2 mps 749 mmHg 49%
    16:00 +20°C° 0.1 mm 2 mps 749 mmHg 51%
    17:00 +18°C° 0.3 mm 2 mps 749 mmHg 59%
    18:00 +17°C° 0.3 mm 3 mps 749 mmHg 67%
    19:00 +14°C° 0.3 mm 3 mps 749 mmHg 75%
    20:00 +14°C° 0 mm 2 mps 749 mmHg 78%
    21:00 +13°C° 0 mm 2 mps 749 mmHg 82%
    22:00 +12°C° 0 mm 2 mps 749 mmHg 85%
    23:00 +12°C° 0.1 mm 2 mps 749 mmHg 87%

    30 April, Tuesday

    Time Temperature Precipitation Wind Pressure Humidity
    00:00 +12°C° 0.1 mm 2 mps 749 mmHg 89%
    01:00 +12°C° 0.1 mm 2 mps 749 mmHg 91%
    02:00 +10°C° 0.2 mm 2 mps 749 mmHg 92%
    03:00 +10°C° 0.2 mm 2 mps 749 mmHg 94%
    04:00 +10°C° 0.2 mm 2 mps 749 mmHg 95%
    05:00 +10°C° 0 mm 2 mps 749 mmHg 91%
    06:00 +12°C° 0 mm 2 mps 749 mmHg 88%
    07:00 +13°C° 0 mm 2 mps 749 mmHg 85%
    08:00 +14°C° 0 mm 2 mps 749 mmHg 81%
    09:00 +14°C° 0 mm 3 mps 749 mmHg 77%
    10:00 +16°C° 0 mm 3 mps 750 mmHg 74%
    11:00 +14°C° 0.4 mm 3 mps 750 mmHg 76%
    12:00 +14°C° 0.4 mm 4 mps 749 mmHg 79%
    13:00 +13°C° 0.4 mm 4 mps 749 mmHg 81%
    14:00 +13°C° 0.2 mm 4 mps 749 mmHg 80%
    15:00 +13°C° 0.2 mm 4 mps 749 mmHg 79%
    16:00 +13°C° 0.2 mm 4 mps 750 mmHg 79%
    17:00 +13°C° 0 mm 4 mps 750 mmHg 81%
    18:00 +12°C° 0 mm 3 mps 750 mmHg 84%
    19:00 +12°C° 0 mm 3 mps 750 mmHg 86%
    20:00 +11°C° 0 mm 3 mps 751 mmHg 86%
    21:00 +10°C° 0 mm 3 mps 751 mmHg 86%
    22:00 +9°C° 0 mm 3 mps 751 mmHg 85%
    23:00 +9°C° 0 mm 3 mps 751 mmHg 86%
    Show more